www.pogodaiklimat.ru

Погода и климат >> Архив погоды >> Россия >> Нижегородская область >> Большое Болдино


ПОГОДА в Большом Болдино

  • Прогноз погоды в Большом Болдино
  • Монитор погоды в Большом Болдино
  • Климат города

АРХИВ ПОГОДЫ в Большом Болдино

Время (UTC), дата Ветер
(напр.,м/с)
 
Видим.   Явления Облачность Т
(С)
Тd
(С)
f
(%)
Тe
(С)
Тes
(С)
Комфортность P
(гПа)
Po
(гПа)
Тmin
(С)
Tmax
(С)
R
(мм)
R24
(мм)
S
(см)
03 14.10 штиль 0
{3}
20 км 10/10 240 м
[St]
+6.1 +5.4 95 +5 +5 1024.0 1000.3 +6.1
06 14.10 СВ 1-2
{2}
20 км 10/8 360 м
[Sc Ac und]
+7.1 +4.6 84 +6 +6 1024.3 1000.7
09 14.10 С 3-4
{4}
20 км 10/9 300 м
[Sc Ac und]
+9.8 +3.6 65 +8 +8 1024.1 1000.8
12 14.10 С 1-3
{5}
20 км 10/10 330 м
[Sc]
+9.5 +3.6 67 +9 +9 1024.2 1000.7
15 14.10 ЮЗ 2-2
{4}
20 км 10/10 300 м
[Sc]
+8.2 +4.1 75 +6 +6 1023.9 1000.4 +9.9
18 14.10 Ю 1-3
{3}
4000 м слабый дождь 10/0 300 м
[As op]
+6.9 +5.6 91 +6 +6 1023.1 999.5
21 14.10 Ю 1-3
{3}
4000 м слабый дождь 10/0 300 м
[As op]
+7.1 +5.8 91 +6 +6 1022.1 998.5
00 15.10 ЮЗ 2-3
{4}
4000 м дымка {дождь} 10/10 270 м
[St]
+7.5 +6.7 95 +5 +5 1021.6 998.1
03 15.10 З 3-4
{5}
4000 м дымка 10/10 270 м
[St]
+9.3 +8.2 93 +7 +7 1021.2 997.8 +6.7 5
06 15.10 З 3-5
{5}
4000 м дымка 10/10 270 м
[St]
+10.8 +9.8 94 +9 +9 1021.3 998.0
09 15.10 СЗ 4-6
{7}
4000 м дымка 10/10 300 м
[St]
+12.1 +11.0 93 +10 +10 1022.1 999.0
12 15.10 СЗ 5-4
{7}
4000 м слабая морось 10/10 270 м
[St]
+12.2 +11.1 93 +10 +10 1022.6 999.5
15 15.10 штиль 0
{4}
4000 м дымка {морось} 10/10 300 м
[St]
+10.4 +9.2 92 +10 +10 1023.2 999.9 +13.1 0.0
18 15.10 ЮЗ 2-3
{3}
20 км {морось} 10/10 360 м
[Sc]
+8.7 +7.7 93 +7 +7 1023.6 1000.1
21 15.10 ЮЗ 4-5
{5}
20 км 10/4 300 м
[Sc Ac und]
+9.0 +7.1 88 +6 +6 1023.7 1000.2
00 16.10 З 4-5
{5}
20 км 4/0
[Ac cast]
+7.2 +5.6 90 +4 +4 1024.0 1000.4
03 16.10 ЮЗ 4-4
{6}
20 км 4/0
[Ac cast]
+6.3 +5.2 93 +2 +2 1024.4 1000.7 +6.1
06 16.10 ЮЗ 3-4
{4}
10 км 3/0
[Ci fib]
+8.6 +7.6 93 +6 +7 1024.2 1000.7
09 16.10 З 5-7
{7}
20 км 8/0
[Ci fib]
+15.0 +8.9 67 +14 +15 1023.5 1000.5
12 16.10 З 5-7
{8}
20 км 9/0
[Ci fib]
+17.7 +7.1 50 +17 +18 1022.6 999.9
15 16.10 З 1-3
{7}
20 км 10/0
[Cs]
+12.5 +7.1 70 +13 +13 1022.5 999.4 +18.3
18 16.10 ЮЗ 3-4
{4}
20 км 3/0
[Cs]
+8.6 +4.8 77 +6 +6 1022.6 999.1
21 16.10 ЮЗ 5-6
{6}
20 км ясно +8.1 +3.8 74 +5 +5 1021.3 997.8
00 17.10 ЮЗ 4-6
{6}
20 км ясно +6.8 +3.5 79 +3 +3 1020.4 996.9
03 17.10 ЮЗ 4-6
{6}
20 км ясно +6.0 +3.1 82 +2 +2 1020.5 996.9 +6.0
06 17.10 З 4-6
{6}
20 км ясно +7.9 +4.0 76 +5 +6 1020.3 996.9
09 17.10 З 5-7
{9}
20 км 10/0
[Ac und]
+11.2 +6.5 73 +9 +9 1021.6 998.3
12 17.10 СЗ 6-8
{9}
20 км 8/3 600 м
[Sc Ac trans]
+13.7 +6.2 60 +12 +12 1022.3 999.3
15 17.10 СЗ 2-3
{9}
20 км 8/0
[Ac cast Ci fib]
+9.0 +4.3 72 +7 +7 1024.0 1000.5 +13.9
18 17.10 С 1-2
{4}
20 км 4/0
[Ac lent]
+5.4 +2.7 83 +4 +4 1025.8 1002.0
21 17.10 З 1-1
{3}
20 км ясно +3.6 +2.3 91 +2 +2 1026.6 1002.5
00 18.10 штиль 0
{2}
10 км ясно -0.2 -1.1 94 -2 -2 1027.5 1003.1
03 18.10 ЮВ 1-1
{2}
10 км 10/0
[Ac cast]
-1.5 -2.4 94 -4 -4 1027.2 1002.7 -1.5
06 18.10 ЮЗ 2-5
{5}
20 км 4/0
[Ci fib]
+4.6 +3.4 92 +2 +3 1026.2 1002.3
09 18.10 Ю 2-5
{6}
20 км 3/0
[Cs]
+12.1 +5.9 66 +11 +15 1024.7 1001.5
12 18.10 ЮЗ 4-6
{8}
20 км 3/0
[Cs]
+13.1 +6.7 65 +12 +12 1023.1 1000.0
15 18.10 Ю 2-4
{7}
20 км 4/0
[Ac cast]
+10.4 +6.5 77 +9 +9 1022.1 998.8 +13.5
18 18.10 Ю 4-6
{7}
20 км 4/0
[Ac trans]
+9.3 +6.7 84 +6 +6 1020.5 997.2
21 18.10 Ю 3-5
{7}
20 км 4/0
[Ac trans]
+8.2 +5.9 85 +6 +6 1019.8 996.4
00 19.10 Ю 2-3
{5}
20 км ясно +7.5 +5.0 84 +5 +5 1018.5 995.3
03 19.10 Ю 2-4
{5}
20 км ясно +7.1 +5.3 88 +5 +5 1018.0 994.5 +6.9
06 19.10 ЮЗ 4-6
{7}
20 км 1/0
[Ci fib]
+7.9 +6.4 90 +4 +5 1017.6 994.2
09 19.10 ЮЗ 3-7
{8}
20 км 8/3 600 м
[Cu med, cong Cc]
+15.6 +8.5 63 +15 +17 1016.3 993.5
12 19.10 З 3-4
{11}
20 км в посл. час ливневой дождь 10/8 600 м
[Cb calv Ac und]
+14.7 +11.5 81 +14 +14 1015.5 992.7
15 19.10 ЮЗ 2-4
{6}
20 км {ливн. осадки} 10/4 600 м
[Sc Ac und]
+15.3 +10.4 73 +15 +15 1014.2 991.5 +19.1 1
18 19.10 ЮЗ 3-4
{6}
20 км {ливн. осадки} 10/6 630 м
[Cb calv Ac und]
+14.7 +9.4 71 +14 +14 1013.6 990.9
21 19.10 З 2-3
{7}
10 км гроза, ливневой дождь 10/10 420 м
[Cb calv]
+12.3 +11.0 92 +11 +11 1013.7 990.8
00 20.10 СЗ 3-3
{6}
4000 м дымка {гроза, ливн. осадки} 10/10 480 м
[Cb calv]
+11.4 +10.6 95 +9 +9 1013.1 990.1
03 20.10 СЗ 3-4
{6}
20 км 10/4 600 м
[Sc Ac und]
+8.5 +6.5 87 +6 +6 1014.2 991.0 +8.4 7
06 20.10 З 4-5
{6}
20 км 4/0
[Ci fib]
+8.0 +5.6 85 +5 +5 1014.9 991.6 +7.5
09 20.10 З 6-9
{9}
20 км 3/3 1000 м
[Cu hum]
+10.1 +3.2 62 +7 +8 1016.0 992.7
12 20.10 СЗ 6-9
{10}
20 км 8/8 540 м
[Sc]
+8.4 +2.7 67 +5 +5 1017.4 994.0
15 20.10 СЗ 5-7
{9}
20 км 10/8 480 м
[Sc Ac As Ci fib]
+6.2 +1.4 71 +2 +2 1018.5 994.9 +11.2
18 20.10 СЗ 2-3
{8}
20 км 10/0
[Ac und]
+5.7 +1.4 74 +3 +3 1019.7 996.0
21 20.10 З 2-2
{4}
20 км 4/0
[Ac lent]
+2.9 +0.5 84 -0 -0 1020.9 997.1
00 21.10 З 1-2
{3}
20 км 3/0
[Ci fib]
+1.3 -0.1 90 -1 -1 1022.2 998.0

 

Местоположение метеостанции Большое Болдино (Нижегородская область, Россия): широта 55.02 долгота 45.32 высота над уровнем моря 192 м.

В архиве по умолчанию представлена погода в Большом Болдино за последнюю неделю. Архивные данные за месяц целиком и за предыдущие месяцы, начиная с января 2011 года, Вы можете получить, выбрав интересующий диапазон дат из раскрывающегося списка и нажав кнопку "Ввод!".


*Определитесь, кто Вы:
робот инопланетянин человек

Внимание! Время в таблицах - всемирное. Для получения местного времени необходимо прибавить поправку, которая в Большом Болдино равна 3 ч.

Смотрите также архив погоды в соседних городах и на ближайших метеорологических станциях:

Погода в Лукоянове (Нижегородская область, Россия) (52 км)
Погода в Сергаче (Нижегородская область, Россия) (58 км)
Погода в Порецком (Чувашия, Россия) (67 км)
Погода в Алатыре (Чувашия, Россия) (84 км)
Погода в Саранске (Мордовия, Россия) (99 км)
Погода в Больших Березниках (Мордовия, Россия) (104 км)
Погода в Арзамасе (Нижегородская область, Россия) (105 км)
Погода в Сурском (Ульяновская область, Россия) (107 км)
Погода в Лысково (Нижегородская область, Россия) (112 км)
Погода в Дальнем Константиново (Нижегородская область, Россия) (117 км)

Пояснения к столбцам:

Ветер - указаны скорость ветра в м/с - средняя за 10 мин, порывы в срок и между сроками (в фигурных скобках) и направление, откуда дует ветер: С - северный, СВ - северо-восточный, В - восточный, ЮВ - юго-восточный, Ю - южный, ЮЗ - юго-западный, З - западный, СЗ - северо-западный.
Видимость - горизонтальная дальность видимости в метрах или километрах. При видимости от 1 до 10 км при отсутствии осадков обычно наблюдается дымка, при ухудшении видимости до 1 км и менее - туман. В сухую погоду видимость может ухудшаться дымом, пылью или мглою.
Явления - указаны атмосферные явления, наблюдавшиеся в срок или в последний час перед сроком; фигурными скобками обозначены явления, наблюдавшиеся между сроками (за 1-3 часа до срока); квадратными скобками обозначены град или гололедные отложения с указанием их диаметра в мм.
Облачность - указаны через наклонную черту общая и нижняя облачность в баллах и высота нижней границы облаков в метрах; квадратными скобками обозначены формы облаков: Ci - перистые, Cs - перисто-слоистые, Cc - перисто-кучевые, Ac - высококучевые, As - высокослоистые, Sc - слоисто-кучевые, Ns - слоисто-дождевые, Cu - кучевые, Cb - кучево-дождевые. Подробнее классификацию облаков см. в Атласе облаков (PDF).
T - Температура воздуха - температура, измеренная на высоте 2 м над землей.
Td - Температура точки росы - температура, при понижении до которой содержащийся в воздухе водяной пар достигнет насыщения.
f - Относительная влажность воздуха - влажноcть воздуха, измеренная на высоте 2 м над землей.
Te - Эффективная температура - температура, которую ощущает одетый по сезону человек в тени. Характеристика душности погоды. При расчете учитывается влияние влажности воздуха и скорости ветра на теплоощущения человека.
Tes - Эффективная температура на солнце - температура, которую ощущает человек, с поправкой на солнечный нагрев. Характеристика знойности погоды. Зависит от высоты солнца над горизонтом, облачности и скорости ветра. Ночью, в пасмурную погоду, а также при ветре 12 м/с и более поправка равна нулю.
P - Атмосферное давление - приведенное к уровню моря атмосферное давление.
Po - Атмосферное давление - измеренное на уровне метеостанции атмосферное давление.
Tmin - Минимальная температура - минимум температуры воздуха на высоте 2 м над землей.
Tmax - Максимальная температура - максимум температуры воздуха на высоте 2 м над землей.
R - Количество осадков - Количество выпавших осадков за период времени, мм. При наведении курсора мыши на число - период времени, за который выпало указанное количество осадков.
R24 - Количество осадков - Количество выпавших осадков за 24 часа, мм.
S - Снежный покров - Высота снежного покрова, см. При наведении курсора мыши на число - состояние снежного покрова и степень покрытия местности в баллах.